{"data":{"norad_id":61942,"intl_designator":"2024-209D","name":"STARLINK-11320 [DTC]","alt_names":[],"object_type":"PAYLOAD","status":"ACTIVE","operator":null,"country":"US","launch_date":"2024-11-14","launch_site_code":"AFWTR","launch_vehicle":null,"mission":null,"orbit_class":"UNKNOWN","rcs_meters":null,"size_class":null,"mass_kg":null,"dimensions":null,"purposes":["comms"],"wikipedia_slug":null,"has_3d_model":false,"image_url":null,"decayed_at":null,"tle_current":{"epoch":"2026-05-24T23:13:54.152832Z","epoch_age_seconds":68057,"freshness":"FRESH","line1":"1 61942U 24209D   26144.96798788  .00085136  00000+0  70019-3 0  9990","line2":"2 61942  53.1568 355.5780 0000910  53.0822 307.0279 15.69716686 88655","mean_motion":15.69716686,"eccentricity":9.1e-5,"inclination_deg":53.1568,"raan_deg":355.578,"arg_perigee_deg":53.0822,"mean_anomaly_deg":307.0279,"bstar":0.00070019,"rev_number":8865,"period_min":91.736299476401,"perigee_km":359.09447385475,"apogee_km":360.32076157517,"semimajor_km":6737.844617715,"source":"CELESTRAK","updated_at":"2026-05-25T13:38:19.486363Z"}}}